Weather History for Jordan, MT

Change the Weather History Date:

Friday, September 2, 2011

  Actual Average Record
Temperature  
Mean Temperature 59 °F 63 °F  
Max Temperature 79 °F 80 °F 101 °F (1983)
Min Temperature 39 °F 47 °F 27 °F (1974)
Degree Days  
Heating Degree Days 6 4  
Month to date heating degree days 17 8  
Since 1 July heating degree days 25 73  
Cooling Degree Days 0 2  
Month to date cooling degree days 0 4  
Year to date cooling degree days 456 397  
Growing Degree Days 8 (Base 50)    
Moisture  
Dew Point 40 °F    
Average Humidity 56    
Maximum Humidity 93    
Minimum Humidity 18    
Precipitation  
Precipitation 0.00 in 0.04 in 0.37 in (1961)
Month to date precipitation 0.00 0.07  
Year to date precipitation 14.60 9.99  
Snow  
Snow 0.00 in - - ()
Month to date snowfall 0.0  
Since 1 July snowfall 0.0  
Since 1 September snowfall 0.0  
Snow Depth 0.00 in    
Sea Level Pressure  
Sea Level Pressure 29.97 in    
Wind  
Wind Speed 14 mph (WNW)    
Max Wind Speed 38 mph    
Max Gust Speed 45 mph    
T = Trace of Precipitation, MM = Missing Value Source: NWS Daily Summary

Daily Weather History Graph

Daily Weather History Graph

Search for Another Location

Airport:

Trip Planner

Search our weather history database for the weather conditions in past years. The results will help you decide how hot, cold, wet, or windy it might be!

Date:

Astronomy

Sep. 02, 2011 Rise Set
Actual Time 6:27 AM MDT 7:46 PM MDT
Civil Twilight 5:56 AM MDT 8:17 PM MDT
Nautical Twilight 5:17 AM MDT 8:55 PM MDT
Astronomical Twilight 4:36 AM MDT 9:36 PM MDT
Moon 12:33 PM MDT (9/2) 9:52 PM MDT (9/2)
Length of Visible Light 14h 21m
Length of Day
13h 18m
Waxing Crescent, 28% of the Moon is Illuminated
Sep 2
Waxing Crescent
Sep 4
First Quarter
Sep 12
Full
Sep 20
Last Quarter
Sep 27
New

Hourly Weather History & Observations

Time (MDT) Temp. Windchill Dew Point Humidity Pressure Visibility Wind Dir Wind Speed Gust Speed Precip Events Conditions
12:48 AM 46.0 °F 43.1 °F 44.1 °F 93% 30.02 in - West 5.8 mph - N/A   Unknown
1:48 AM 45.0 °F - 42.1 °F 90% 30.00 in - Calm Calm - N/A   Unknown
2:48 AM 45.0 °F 43.5 °F 43.0 °F 93% 29.99 in - West 3.5 mph - N/A   Unknown
3:48 AM 39.9 °F - 37.9 °F 93% 29.99 in - Calm Calm - N/A   Unknown
4:48 AM 48.0 °F - 45.0 °F 89% 29.97 in - West 4.6 mph - N/A   Unknown
5:48 AM 45.0 °F - 43.0 °F 93% 29.96 in - Calm Calm - N/A   Unknown
6:48 AM 46.0 °F - 44.1 °F 93% 29.94 in - Calm Calm - N/A   Unknown
7:48 AM 52.0 °F - 48.0 °F 86% 29.93 in - WSW 4.6 mph - N/A   Unknown
8:48 AM 55.9 °F - 48.9 °F 77% 29.92 in - West 8.1 mph - N/A   Unknown
9:48 AM 62.1 °F - 48.0 °F 60% 29.90 in - SW 12.7 mph - N/A   Unknown
10:48 AM 68.0 °F - 43.0 °F 40% 29.88 in - West 12.7 mph - N/A   Unknown
11:48 AM 72.0 °F - 36.0 °F 27% 29.86 in - WSW 13.8 mph 19.6 mph N/A   Unknown
12:48 PM 77.0 °F - 30.9 °F 19% 29.84 in - West 18.4 mph 26.5 mph N/A   Unknown
1:48 PM 75.0 °F - 35.1 °F 23% 29.85 in - West 18.4 mph 28.8 mph N/A   Unknown
2:48 PM 78.1 °F - 33.1 °F 19% 29.83 in - West 18.4 mph 26.5 mph N/A   Unknown
3:48 PM 73.9 °F - 37.0 °F 26% 29.89 in - NNW 29.9 mph 40.3 mph N/A   Unknown
4:48 PM 71.1 °F - 36.0 °F 28% 29.93 in - NW 33.4 mph 42.6 mph N/A   Unknown
5:48 PM 66.0 °F - 37.0 °F 34% 29.99 in - NW 27.6 mph 43.7 mph N/A   Unknown
6:48 PM 61.0 °F - 36.0 °F 39% 30.03 in - NW 29.9 mph 41.4 mph N/A   Unknown
7:48 PM 57.9 °F - 36.0 °F 44% 30.05 in - NW 21.9 mph 32.2 mph N/A   Unknown
8:48 PM 57.0 °F - 35.1 °F 44% 30.08 in - NW 18.4 mph 25.3 mph N/A   Unknown
9:48 PM 55.9 °F - 36.0 °F 47% 30.12 in - NNW 13.8 mph - N/A   Unknown
10:48 PM 55.0 °F - 37.0 °F 51% 30.12 in - NW 16.1 mph - N/A   Unknown
11:48 PM 54.0 °F - 37.9 °F 55% 30.14 in - NW 13.8 mph - N/A   Unknown